Regional Weather Roundup
Issued by NWS Cleveland, OH

Home | Current Version | Previous Version | Text Only | Print | Product List | Glossary Off
Versions: 1 2 3 4 5 6 7 8 9 10 11 12 13 14 15 16 17 18 19 20 21 22 23 24 25 26 27 28 29 30 31 32 33 34 35 36 37 38 39 40 41 42 43 44 45 46 47 48 49 50

000
ASUS41 KCLE 261900
RWRCLE
OHIO REGIONAL WEATHER ROUNDUP
NATIONAL WEATHER SERVICE WILMINGTON, OH
300 PM EDT TUE SEP 26 2017

NOTE: "FAIR" INDICATES FEW OR NO CLOUDS BELOW 12,000 FEET WITH NO
SIGNIFICANT WEATHER AND/OR OBSTRUCTIONS TO VISIBILITY.

OHZ001>008-015>018-024>027-034-035-043-044-262000-
   NORTHWEST OHIO

CITY           SKY/WX    TMP DP  RH WIND       PRES   REMARKS
DEFIANCE       FAIR      88  61  40 SW3       29.97F
FINDLAY        FAIR      88  60  38 W5        29.97F
TOLEDO EXPRESS FAIR      91  65  41 SW7       29.96F HX  93
TOLEDO EXEC    PTSUNNY   89  62  40 NW6       29.97F
LIMA           FAIR      88  61  40 VRB7      29.99F
$$

OHZ009>014-019>023-028>033-038-089-262000-
   NORTHEAST OHIO

CITY           SKY/WX    TMP DP  RH WIND       PRES   REMARKS
CLE-HOPKINS    FAIR      91  61  36 N14       30.00F HX  91
CLE-LAKEFRONT  FAIR      82  68  62 N5        29.98F
CUY CO. ARPT   MOSUNNY   88  61  40 NW12      30.00F
LORAIN-ELYRIA  FAIR      89  55  31 S5        29.99F
ASHTABULA      FAIR      89  56  32 VRB6      30.00F
AKRON-CANTON   FAIR      91  58  32 W6        30.01F HX  90
WOOSTER        NOT AVBL
MANSFIELD      FAIR      89  59  36 NW7       30.01F
YOUNGSTOWN     PTSUNNY   89  64  43 W8        30.01F HX  90
$$

OHZ042-051>053-060>062-070>072-077>081-262000-
  SOUTHWEST OHIO

CITY           SKY/WX    TMP DP  RH WIND       PRES   REMARKS
CINC-COVINGTON FAIR      87  63  44 S5        30.00F
CINC-LUNKEN    FAIR      88  61  40 SW7       29.98F
HAMILTON       FAIR      87  64  46 NE3       30.00F
DAYTON         NOT AVBL
WRIGHT-PAT AFB FAIR      88  56  33 CALM      29.99F
DAYTON GENERAL FAIR      86  61  42 S3        30.00F
WILMINGTON     FAIR      87  63  44 W6        30.00F
$$

OHZ036-037-039>041-045>050-054>059-063>069-073>076-082>088-262000-
  CENTRAL AND SOUTHEAST OHIO

CITY           SKY/WX    TMP DP  RH WIND       PRES   REMARKS
COLUMBUS       FAIR      90  60  36 VRB3      29.98F
OSU AIRPORT    FAIR      88  61  40 CALM      29.99F
BOLTON FIELD   SUNNY     88  79  74 SW5       30.00F HX 102
RICKENBACK AFB NOT AVBL
NEWARK         FAIR      88  60  38 VRB3      29.98F
MARION         FAIR      91  57  31 CALM      29.99F
LANCASTER      FAIR      89  61  38 VRB5      29.99F
ZANESVILLE     FAIR      90  61  37 NW6       29.99F HX  90
NEW PHILLY     FAIR      91  61  36 VRB3      30.00F HX  91
$$



USA.gov is the U.S. government's official web portal to all federal, state and local government web resources and services.